Showing default

TECHEDSAT-11, 60208

Orbit data source: Space-Track

TECHEDSAT-11, 60208 is an American payload satellite in SSO that was launched on Thu, 04 Jul 2024 UTC via an FIREFLY ALPHA launch vehicle from the Air Force Western Test Range (AFWTR). Payload-class satellites include a variety of spacecraft equipped with specific instruments for various scientific and technological missions. These include communications satellites like Starlink; space stations such as the ISS; scientific satellites like the Hubble; Earth observation satellites from companies like Planet Labs, Umbra, and HawkEye 360; GPS; miniature CubeSats for education and research; and military/defense satellites.

Loading next visibility...
Identifier
60208, 2024-125F
Orbit
SSO
Country
Flag of USUS
Related business
Manufacturer
ARC
Mission
Operational Civil Technology
Bus & Motor
CUBESAT 6UXL, Unknown motor
Mass
10 kg wet, ~10 kg dry
Launch date (UTC)
2024-07-04 (1 year ago)
Launch vehicle
FIREFLY ALPHA
Launch site
Air Force Western Test Range (AFWTR)
Object type
Payload
Rocket body
Debris
Shape & HBR
Box + 1 Sail, 1.0 m
Radar Cross Section
0.045 m², Small (<0.1 m²)

Expand to show TLE details & history
Last TLE update: 7 hours ago

TLE from 7 hours ago
0 TECHEDSAT-11
1 60208U 24125F   25311.15797334  .00017749  00000-0  48340-3 0  9991
2 60208  97.2591 159.9990 0017775 318.0355  41.9527 15.37392131 75011
Epoch: 2025-11-07T03:47Z
TLE epoch observation values (Epoch: 2025-11-07T03:47:28.896Z)
Latitude
-0.00003°
Longitude
56.52264°
Altitude
447.919 km
Speed
7.649 km/s
True Right ascension
10h 39m 59s
True Declination
0° 00' 00"
Sunlit
Object was in daylight at epoch
Visualization orbit readout
Latitude
Unknown
Longitude
Unknown
Altitude
Unknown
Speed
Unknown
Apparent Right ascension
Unknown
Apparent Declination
Unknown
Sunlit
N/A
Visualization observer readout
Local Sidereal Time
07:10:07
Azimuth
Unknown
Elevation
Unknown
Doppler factor
Unknown
Orbital elements
Apogee altitude
462.899 km
Perigee altitude
438.622 km
Semi-major axis
6,828.898 km
Eccentricity
0.00178
Inclination
97.2591°
RAAN
159.999°
Arg. of periapsis
318.0355°
True anomaly
42.08909°
Mean anomaly
41.9527°
Eccentric anomaly
42.02087°
Mean motion
3.84607 °/min
Orbital period
93.6 mins
BSTAR
0.0004834
Loading maneuver chart data...
Computing Atmospheric mass density...
Loading historical data...
Loading historical data...
Loading historical data...
Loading historical data...
Loading historical data...
Loading historical data...
Loading historical data...

Documentation

Showing up to 5 results
|